GFSNGP_250_spd_093.txt.gz
Wind_Speed
44 40 39 38 40 43 45 49 54 58 57 61 63 61 54 50 52 50 46 43 45 44 49 52 46 47 41 39 36 31 31 33 22 24 28 24 19 17 18 17 21 33 44 48
45 42 41 39 43 44 46 50 55 61 58 63 61 56 53 58 62 60 51 53 50 43 40 43 48 49 48 44 41 35 35 39 39 26 27 31 29 26 24 22 22 24 23 23
46 40 40 47 52 53 52 51 58 60 60 62 64 59 57 58 62 65 60 42 44 48 55 50 49 49 49 48 41 44 43 42 40 43 35 30 32 37 33 31 30 29 30 28
47 42 45 53 51 55 58 58 53 50 57 58 63 68 69 66 63 63 62 57 57 56 55 57 56 52 55 51 48 45 46 38 39 42 45 42 37 35 36 42 42 40 38 38
48 48 52 55 51 56 58 59 56 53 51 58 62 69 74 77 73 69 69 66 69 71 71 70 63 56 58 52 50 52 46 46 47 47 49 48 49 52 48 45 42 43 49 49
47 52 55 52 53 54 55 53 52 56 54 55 61 66 69 72 77 76 76 77 78 74 71 70 67 66 56 56 58 59 51 50 47 49 50 54 56 59 61 59 56 54 50 50
46 50 57 56 55 55 59 61 61 59 61 61 60 60 63 65 73 77 79 78 78 78 73 73 67 66 66 65 61 53 54 53 55 55 54 54 56 58 60 61 60 63 63 61
42 49 55 56 58 58 63 59 61 64 65 67 69 68 70 71 70 69 68 70 75 72 70 69 69 68 67 67 65 61 58 58 61 63 61 62 65 64 67 66 68 66 69 69
44 49 54 55 56 57 61 58 57 63 69 70 69 70 73 81 80 78 81 83 87 88 86 86 85 86 87 84 82 77 72 66 64 66 65 66 70 71 71 68 64 69 71 73
43 45 51 57 57 60 57 56 52 59 66 68 73 77 78 86 84 81 81 86 84 86 87 82 80 78 74 75 80 82 86 87 79 75 75 74 74 67 70 75 70 69 68 67
40 40 42 50 56 58 60 58 56 53 57 61 66 68 72 75 74 75 76 74 71 68 65 63 62 61 62 59 56 63 66 71 71 72 75 79 81 78 76 72 67 73 78 78
38 39 42 43 47 49 51 54 56 57 58 58 60 63 67 69 69 70 70 65 64 63 61 58 59 57 59 56 55 54 59 60 63 65 67 67 70 70 70 71 68 56 75 64
35 38 35 40 41 42 43 44 49 51 54 57 59 61 63 64 66 66 65 62 58 53 53 50 52 52 56 53 52 51 53 55 56 57 57 60 53 55 60 64 60 61 69 76
38 37 37 39 40 39 39 40 44 47 48 50 52 55 57 58 59 61 61 58 57 54 53 54 50 53 54 56 53 51 53 54 55 55 57 59 55 56 54 58 68 71 73 79
37 37 39 38 38 38 38 41 43 46 47 49 51 52 55 58 59 60 60 60 61 60 58 57 55 54 55 54 55 53 53 55 57 60 54 54 63 56 63 65 68 72 76 85
39 40 40 41 39 40 39 41 43 45 47 50 52 54 56 58 60 61 63 62 63 60 58 60 60 58 58 59 59 58 54 57 59 60 62 67 70 69 64 71 71 71 84 80
41 41 41 42 40 42 42 41 43 46 47 49 52 55 58 59 59 61 64 65 65 64 61 61 62 59 59 62 62 63 64 62 65 63 73 75 74 75 68 71 70 79 91 99
38 40 39 40 40 40 41 41 43 45 47 49 51 53 55 57 59 61 63 65 64 65 64 61 61 61 62 64 66 69 71 70 70 74 80 83 83 78 84 89 91 93 94 101
38 39 40 42 43 44 45 46 47 49 50 52 53 55 57 59 60 61 62 63 63 62 64 65 66 65 65 67 70 75 76 77 77 79 81 84 90 92 97 98 99 102 97 98
33 35 38 40 41 43 44 45 46 48 50 52 54 55 56 57 57 57 57 58 60 61 62 64 65 65 66 68 70 71 77 80 81 82 89 93 92 94 101 100 105 104 106 109
33 35 36 38 39 40 42 43 44 45 49 51 50 48 48 48 50 52 53 54 56 58 60 62 64 64 67 70 71 70 73 78 82 83 86 89 94 97 97 98 103 106 111 115
34 36 37 39 41 42 43 43 45 47 47 45 45 46 47 50 52 54 56 57 59 61 62 63 65 66 66 67 69 71 72 75 75 77 83 87 91 94 96 98 101 105 110 113
40 41 42 43 44 44 45 44 43 43 43 44 46 48 49 50 50 52 53 54 55 56 57 59 61 62 64 65 67 68 70 72 74 74 74 77 81 84 86 91 96 102 105 106
44 46 48 48 47 47 48 51 53 54 54 54 54 52 49 47 48 50 51 52 54 55 55 56 57 58 59 61 63 64 66 67 69 71 72 74 76 80 84 88 91 93 96 99
48 49 51 53 54 55 55 55 55 52 51 49 49 50 51 51 51 50 52 53 53 53 54 55 56 57 58 60 61 63 64 66 67 69 71 72 73 75 77 80 83 85 86 88
51 51 51 50 50 49 49 49 50 51 51 51 51 52 51 51 51 51 51 52 53 53 54 54 54 55 56 58 60 61 63 65 66 68 69 71 72 73 75 76 77 79 80 82
45 46 48 49 50 50 51 51 52 53 53 52 52 51 50 50 51 51 52 53 53 54 55 56 56 57 58 59 60 61 63 64 65 66 68 69 71 72 74 75 76 77 78 79

GFSNGP_250_spd_096.txt.gz
Wind_Speed
44 41 42 39 33 32 38 43 46 56 58 64 59 57 61 57 50 42 58 53 45 48 46 37 35 36 35 37 41 40 36 33 33 33 30 26 22 25 22 19 18 18 22 31
43 38 39 38 34 39 44 46 54 58 59 61 70 55 51 53 59 50 54 55 49 44 42 43 43 36 38 42 44 41 40 39 38 39 36 36 29 27 29 29 27 26 24 23
43 40 40 42 40 40 42 42 53 57 57 54 55 71 62 60 51 52 53 53 50 47 41 41 44 41 41 39 36 36 35 33 34 39 42 43 42 37 38 33 35 35 33 33
44 41 41 43 41 43 43 45 52 58 58 49 50 60 69 63 58 57 56 57 51 52 56 53 50 43 46 47 45 39 35 37 37 39 40 44 43 45 40 42 42 41 39 40
41 42 43 41 39 43 46 50 56 63 63 61 57 55 53 59 62 58 55 57 58 53 52 52 47 48 50 56 55 51 53 49 43 45 44 38 46 44 46 49 50 49 49 46
42 44 43 43 44 48 51 50 54 60 65 65 61 59 56 50 53 58 65 61 57 61 61 59 60 58 56 56 57 59 60 61 62 56 50 43 48 54 53 52 52 54 57 57
41 43 44 45 49 51 52 54 56 59 62 63 66 67 66 65 66 66 66 66 66 65 66 67 66 65 65 64 67 62 62 60 54 53 53 54 52 54 55 54 55 58 57 61
41 44 47 49 51 52 53 54 57 59 63 64 64 63 64 63 66 70 71 72 73 72 71 70 69 70 67 63 66 69 67 63 58 59 60 61 54 58 57 57 59 61 64 64
41 44 46 49 51 52 54 54 56 58 62 64 65 67 67 65 67 70 70 71 72 72 73 73 68 65 66 67 66 58 60 64 67 65 65 67 66 55 64 61 63 64 65 67
39 42 43 47 52 53 54 52 60 62 60 59 62 63 65 69 71 71 70 71 71 70 71 70 70 72 72 71 69 68 69 70 68 68 69 68 65 64 63 70 71 67 72 68
39 39 40 43 47 50 53 53 54 57 60 65 67 66 69 72 75 74 73 76 75 74 74 76 77 78 79 78 80 83 83 85 85 87 87 88 85 81 81 77 75 74 77 79
38 43 45 48 47 48 51 52 54 54 56 59 65 71 74 74 75 77 77 73 76 77 78 81 82 80 78 73 70 67 63 63 64 63 65 71 77 81 96 100 91 89 88 97
49 45 47 44 42 42 46 47 48 50 51 51 53 60 63 66 68 74 77 81 75 73 74 73 71 65 66 64 64 62 61 58 60 60 67 70 72 73 76 82 91 94 85 87
43 41 39 35 35 39 43 44 44 47 50 52 54 56 59 61 64 67 71 73 72 74 72 71 71 67 63 60 55 55 55 59 61 61 61 62 67 68 69 71 73 77 87 81
41 36 35 36 40 38 39 41 41 43 46 49 51 51 53 56 58 61 64 65 65 66 67 66 63 61 60 58 57 55 56 58 60 61 59 58 62 67 68 70 73 76 82 88
35 33 34 36 38 38 41 43 44 44 45 46 48 48 49 52 53 55 56 57 59 60 61 63 64 64 63 61 61 62 61 60 64 65 61 60 63 65 68 70 73 78 80 83
39 39 38 39 39 38 37 39 42 43 45 47 48 49 50 52 54 55 56 58 59 61 61 63 64 66 67 65 65 65 66 67 68 68 64 64 64 66 69 72 76 78 80 88
38 38 39 39 40 41 41 41 44 46 46 47 48 49 51 53 55 56 57 59 61 63 64 65 65 66 66 67 66 66 67 69 71 70 67 69 68 71 73 76 80 86 84 86
40 41 41 43 44 45 45 45 45 46 47 48 49 50 51 53 55 57 58 60 61 61 63 64 66 67 67 67 69 69 67 69 72 72 73 71 75 79 82 84 86 88 92 90
35 39 41 42 44 46 46 45 45 45 45 47 47 49 50 52 54 56 58 61 63 65 65 65 64 64 64 65 65 66 66 68 71 73 75 76 78 83 87 88 86 91 91 96
32 33 34 36 38 40 42 43 44 45 46 47 49 50 52 55 58 59 60 59 59 58 58 58 58 59 61 63 64 66 66 66 67 69 70 71 74 76 80 84 85 86 90 94
34 36 38 39 41 43 44 46 47 48 49 50 50 51 53 53 52 51 52 53 54 56 57 58 59 61 63 64 65 65 66 66 67 69 69 69 69 70 73 75 77 80 82 85
33 35 36 38 39 39 40 42 43 44 45 45 46 45 44 44 45 47 49 52 54 56 58 60 62 63 63 63 63 62 63 63 64 65 67 68 70 72 74 76 78 79 81 83
39 40 40 40 40 39 39 39 39 39 38 40 42 43 45 46 47 49 51 53 53 52 53 55 56 57 58 60 61 62 63 63 64 64 65 65 67 68 70 72 73 75 77 80
46 47 47 46 46 46 46 47 48 48 49 51 51 52 52 51 50 50 51 52 53 54 55 56 56 58 59 60 62 63 64 65 65 65 66 67 69 70 71 72 74 76 77 79
48 49 49 50 50 51 53 53 54 54 53 52 52 51 52 52 52 52 52 53 53 53 54 55 55 56 57 58 59 59 60 61 63 64 65 67 68 70 71 72 73 74 75 75
46 47 48 50 50 50 50 50 50 50 50 51 51 51 52 52 52 52 53 53 54 55 56 56 58 59 60 60 61 62 63 63 64 65 65 66 67 68 68 69 71 72 73 74

GFSNGP_250_spd_102.txt.gz
Wind_Speed
68 75 80 76 72 70 66 62 61 57 50 50 48 37 35 40 36 32 42 40 50 45 45 45 45 45 44 38 35 29 34 31 29 28 28 24 24 23 25 22 24 23 23 20
63 66 64 60 57 55 52 50 46 42 44 45 41 36 44 46 53 44 41 45 49 47 49 49 47 47 44 41 36 32 33 33 33 30 29 28 27 27 25 24 24 27 26 25
57 56 55 55 49 47 44 40 39 39 38 40 39 41 54 51 46 52 55 52 47 51 54 52 46 46 45 43 41 40 38 38 36 35 36 34 31 29 25 22 23 23 26 30
52 50 47 49 47 42 38 38 39 37 38 39 36 47 53 57 53 54 51 54 51 54 54 53 51 51 52 51 47 48 42 40 39 40 40 41 41 39 34 33 31 26 23 24
50 46 45 49 45 38 35 35 36 36 39 39 40 54 57 65 51 50 46 55 61 57 59 60 57 55 52 54 52 52 47 44 42 48 48 45 41 43 41 39 37 37 38 39
45 43 48 48 42 38 37 35 35 37 40 43 47 59 69 69 61 56 59 59 60 63 62 65 64 59 55 56 53 54 56 54 55 54 51 49 47 46 47 47 46 50 51 49
44 46 48 47 44 41 37 36 36 39 43 46 50 62 69 81 70 66 60 63 61 54 60 65 65 64 62 56 55 54 56 58 58 54 51 51 52 50 53 54 56 56 56 56
44 46 46 44 42 40 38 39 40 42 46 50 54 66 71 76 75 78 76 69 66 69 66 65 62 66 68 65 63 61 62 61 59 58 60 62 63 62 62 59 57 57 59 59
46 46 43 43 42 41 43 44 46 47 49 54 55 69 72 75 71 70 75 68 70 61 62 56 60 60 69 70 68 68 68 65 71 69 68 66 66 64 64 64 68 69 71 70
44 45 43 41 40 43 46 47 48 50 52 56 60 62 78 82 80 73 69 65 65 68 72 72 73 69 70 65 68 69 70 71 70 68 70 72 70 71 73 74 75 77 77 79
43 41 44 41 43 45 48 48 52 53 55 56 62 68 71 82 84 82 81 78 77 72 75 79 72 68 67 71 77 77 75 74 74 71 73 74 74 75 76 77 80 79 79 77
40 43 46 46 46 47 51 52 55 57 58 58 64 65 71 82 84 88 88 84 79 81 82 80 78 78 80 81 78 76 77 76 79 78 76 75 74 73 77 78 79 81 84 83
38 41 42 45 50 47 49 53 56 59 60 63 64 66 68 73 81 82 88 93 92 84 85 87 90 89 85 84 83 82 79 78 80 81 82 84 87 86 80 79 82 86 88 88
37 41 43 47 49 45 50 52 55 57 60 62 67 69 71 72 71 78 82 79 79 83 86 83 83 83 86 87 85 85 86 85 86 88 88 87 87 88 87 88 90 95 97 97
35 40 43 45 44 44 46 48 51 53 56 59 62 65 69 74 77 77 80 85 87 88 88 86 86 86 87 90 91 93 95 94 95 94 90 89 89 89 90 92 92 92 93 92
37 39 42 44 44 43 45 48 50 52 55 58 62 65 68 70 73 77 81 84 86 87 88 90 93 94 94 95 95 93 93 91 89 88 89 91 89 89 88 88 87 85 86 87
38 42 45 46 46 47 49 51 54 56 57 58 61 64 68 72 74 76 78 81 82 83 85 86 87 87 88 89 90 90 90 89 87 86 85 86 85 85 87 86 84 83 81 81
41 44 46 47 48 49 52 54 55 56 57 58 60 62 63 65 68 71 74 76 78 79 82 84 86 87 87 87 89 90 89 90 90 89 88 86 83 81 79 80 80 81 81 80
38 41 44 45 45 46 48 51 53 56 57 57 59 61 62 62 62 64 65 67 69 71 73 75 76 78 80 81 81 82 82 82 81 81 81 80 80 80 80 79 79 80 81 82
36 38 41 43 44 44 44 46 49 54 56 57 57 56 55 56 58 59 61 62 63 63 65 66 68 70 72 73 75 77 78 78 78 78 77 77 77 77 78 78 78 80 82 83
34 36 37 39 41 43 45 46 48 49 52 55 57 56 55 56 58 59 59 61 62 64 66 69 70 72 73 75 75 76 77 76 75 74 74 74 75 77 78 79 80 81 80 80
36 38 40 43 44 45 46 47 48 50 52 54 56 57 58 59 60 61 63 64 66 68 70 71 72 73 74 75 75 75 73 72 72 74 74 74 75 76 74 73 73 74 74 74
41 42 43 45 47 48 49 50 51 52 53 55 56 57 59 60 61 63 64 65 66 67 69 70 70 71 72 72 72 71 71 72 71 71 72 72 71 71 70 70 72 74 76 76
40 41 43 44 46 47 48 49 50 51 52 52 53 53 55 56 56 58 59 59 60 61 62 63 65 66 66 66 68 68 68 69 70 71 71 72 73 75 77 77 76 74 75 75
38 40 41 42 44 45 46 47 48 49 51 51 52 53 54 55 56 56 57 57 59 60 61 62 62 63 65 65 66 68 70 72 74 75 77 76 75 73 73 74 74 73 71 70
45 47 48 49 51 51 51 51 52 52 53 53 54 55 55 56 57 58 58 59 59 61 62 64 66 68 69 70 71 71 70 69 69 69 70 70 69 69 69 69 68 68 68 69
44 44 43 43 44 45 46 46 46 48 49 49 50 52 53 53 54 55 57 58 59 60 61 60 61 62 63 63 63 64 64 64 65 66 67 67 68 69 69 70 70 70 70 70

GFSNGP_250_spd_105.txt.gz
Wind_Speed
75 78 80 84 84 78 74 72 72 74 75 77 74 74 76 67 48 44 51 43 28 27 21 29 32 37 39 41 40 39 35 38 37 35 34 33 31 26 24 22 21 18 22 20
63 70 72 73 79 82 82 80 79 83 83 78 65 64 54 47 41 39 39 38 38 24 36 26 36 39 40 38 40 39 41 41 42 39 38 36 33 29 31 27 25 23 22 25
57 63 66 70 76 79 81 77 71 63 60 54 47 42 39 38 37 38 41 41 45 50 54 37 39 39 40 39 43 43 44 45 45 42 32 34 34 34 34 32 29 26 23 23
53 55 59 58 61 61 58 53 52 51 48 37 36 36 34 37 38 41 43 36 42 40 41 38 42 45 46 45 44 44 45 47 41 40 38 40 42 42 40 38 37 34 30 28
51 53 54 57 57 53 49 48 46 43 39 37 36 33 37 38 42 51 50 44 48 45 43 44 46 47 46 50 47 44 46 50 46 44 45 48 48 47 46 44 42 40 38 37
46 48 50 50 48 46 46 42 39 37 35 30 32 35 38 46 62 62 56 52 49 51 46 47 48 45 50 53 57 53 52 43 55 53 44 49 53 53 46 46 44 45 43 42
44 45 46 46 45 47 41 37 36 36 33 34 35 41 51 59 69 63 64 62 56 52 49 53 42 54 60 62 57 58 58 57 56 53 54 56 55 53 50 49 48 49 47 48
44 47 46 43 46 45 40 40 40 39 36 36 38 44 63 70 68 66 58 71 69 65 66 64 65 58 58 62 61 60 60 61 62 59 56 56 57 56 57 55 55 53 55 56
41 44 43 44 46 43 40 40 40 40 39 39 40 45 65 70 70 61 60 59 65 71 70 70 67 68 69 65 62 59 59 60 65 62 58 58 59 59 61 60 61 63 63 64
40 41 41 42 41 39 37 39 42 43 42 42 41 43 61 77 75 67 63 65 62 69 61 67 71 71 72 66 61 65 68 65 63 64 64 65 65 67 70 70 71 70 69 67
40 41 41 40 39 38 38 41 44 44 44 44 44 44 54 71 81 78 67 67 70 65 71 62 65 72 74 73 73 78 74 71 71 75 75 75 74 73 73 76 78 78 76 75
35 38 41 40 39 41 40 42 46 47 46 45 47 47 51 63 84 85 77 72 71 73 77 69 67 66 64 68 72 67 73 77 78 79 82 83 84 83 81 81 81 81 81 81
35 35 34 33 34 40 38 41 44 47 48 46 48 49 53 59 70 87 86 80 83 80 80 75 77 77 76 76 73 72 72 77 84 85 84 84 86 88 87 85 82 85 86 86
25 26 25 29 35 40 34 39 42 46 48 48 50 51 53 56 65 74 83 92 92 92 86 85 83 89 93 87 83 86 86 91 91 89 86 84 84 86 90 90 87 89 95 92
25 22 24 30 35 36 34 38 42 45 46 50 52 53 56 59 60 67 82 86 88 95 95 89 89 88 86 83 82 85 85 87 89 90 90 92 93 96 98 100 96 99 100 96
24 22 24 32 35 35 36 38 42 44 45 48 53 56 59 60 62 64 69 79 87 95 96 98 95 93 92 96 96 96 98 97 95 97 99 101 102 106 109 109 109 104 101 105
30 30 32 32 35 36 37 38 41 44 46 49 52 55 58 62 64 68 70 72 75 79 90 103 101 103 104 104 103 102 104 106 107 109 110 110 103 100 102 102 103 108 108 102
35 35 35 37 38 40 42 44 46 48 49 51 53 56 60 63 65 68 71 74 78 81 82 84 86 91 95 96 99 99 99 100 101 102 103 104 105 106 106 106 105 101 99 98
34 37 39 40 42 43 43 44 46 49 51 53 55 56 58 61 64 66 68 71 74 76 78 81 84 86 88 90 92 94 96 97 98 98 99 99 99 100 99 99 98 96 93 90
31 33 36 38 39 39 40 41 43 46 50 52 53 54 55 57 59 61 63 66 67 69 70 72 75 77 79 80 82 84 87 89 91 92 92 92 92 91 90 90 90 89 88 86
28 30 33 35 36 38 40 41 43 44 46 48 51 53 55 57 58 60 62 64 65 66 67 68 69 70 72 74 75 77 78 80 82 84 85 86 87 86 86 86 85 84 84 84
28 29 31 34 36 39 40 42 44 46 48 50 51 52 54 56 58 60 61 61 62 63 65 67 69 70 71 73 74 75 77 79 81 82 82 83 83 82 81 80 82 83 83 84
33 35 37 39 42 43 44 45 47 49 51 51 53 54 57 58 60 61 63 64 65 66 67 69 70 72 73 75 75 76 77 78 79 80 80 79 79 79 80 80 81 81 80 80
37 39 40 42 43 45 46 48 49 50 51 52 53 54 55 56 57 58 59 61 63 65 67 68 69 70 71 72 73 74 75 76 77 78 78 78 78 78 78 77 76 74 75 76
36 38 40 42 43 44 45 47 48 49 50 50 50 51 52 53 54 55 56 58 60 62 63 64 65 66 67 68 69 71 71 72 72 72 72 72 73 73 74 75 77 78 79 78
41 42 43 44 44 45 46 47 48 48 49 49 50 51 52 53 54 55 55 56 57 58 59 61 62 64 65 66 67 68 69 70 71 72 73 75 76 76 76 76 76 76 75 75
46 47 49 49 51 52 53 54 55 55 55 56 56 55 55 55 55 56 57 59 60 61 63 63 64 65 66 67 68 69 70 70 70 71 71 71 71 71 72 72 73 74 74 74

GFSNGP_250_spd_108.txt.gz
Wind_Speed
66 73 83 85 77 72 70 68 66 67 67 62 61 61 63 60 56 56 59 52 53 56 60 45 50 43 43 42 41 40 42 43 48 51 47 45 37 34 37 30 24 23 22 19
59 65 76 86 83 79 77 75 73 74 74 70 65 62 63 62 60 60 60 56 56 47 29 19 21 27 26 28 29 32 37 47 49 50 47 45 35 33 37 35 29 27 24 24
54 59 69 78 84 84 82 80 80 79 78 79 75 73 70 64 62 62 63 48 29 21 7 18 17 18 23 26 31 40 48 45 46 45 42 39 36 35 35 37 36 33 31 26
54 54 59 66 74 78 81 80 78 75 72 73 74 74 71 60 59 50 40 34 42 34 19 22 25 16 26 35 40 44 40 38 37 40 40 39 40 40 36 36 37 36 36 33
54 55 54 55 58 60 61 62 61 60 59 59 60 61 55 44 45 37 36 38 55 45 19 24 33 28 33 39 40 40 40 37 41 43 45 47 47 46 42 42 42 43 42 37
49 52 53 55 55 54 53 54 51 53 52 50 49 46 41 42 40 36 38 52 64 60 56 48 33 35 42 42 38 39 44 43 43 46 51 51 50 53 51 48 47 48 47 45
44 48 51 52 56 54 52 50 47 49 45 44 41 41 41 38 41 39 42 65 65 69 65 43 35 36 48 49 47 45 34 44 39 41 48 52 52 55 60 57 54 51 52 50
44 46 47 47 50 47 50 49 46 43 39 39 38 40 38 41 43 48 57 68 61 65 55 51 60 49 55 54 51 47 59 58 51 51 52 47 52 55 60 57 58 54 55 56
42 41 42 43 44 44 44 44 42 40 39 39 38 38 39 43 53 60 66 67 60 67 63 56 46 56 59 59 52 58 60 61 60 60 56 56 56 57 58 56 55 55 57 59
38 39 40 39 40 42 43 43 40 39 37 37 38 38 39 41 63 67 71 66 67 64 68 66 66 64 57 56 69 68 64 63 65 62 61 60 64 66 68 68 64 61 62 61
38 36 37 38 38 38 41 40 38 37 38 37 39 40 40 41 65 75 76 77 76 76 74 73 72 68 67 69 66 72 71 70 68 71 69 69 70 68 67 66 67 66 65 69
37 37 37 36 38 39 40 37 35 36 38 40 41 42 43 44 71 76 81 80 78 84 79 76 70 73 73 75 71 69 72 77 68 68 71 69 70 69 72 74 75 76 76 77
32 32 34 36 38 38 37 35 35 34 37 40 42 43 45 50 74 78 84 87 82 86 83 81 81 80 84 81 78 81 79 83 80 79 77 78 79 82 80 82 81 84 87 89
26 29 31 36 36 36 36 35 36 35 39 43 44 44 47 53 56 82 85 84 81 89 89 88 86 87 89 90 87 86 91 89 85 84 85 84 85 88 89 89 93 95 96 97
25 27 30 30 29 29 34 37 36 38 41 44 46 47 48 53 53 73 86 89 89 83 84 83 85 86 85 88 91 87 86 84 85 82 83 90 87 87 87 86 86 101 107 103
31 31 30 27 27 29 35 39 37 39 41 44 47 49 51 53 55 59 77 83 91 91 87 89 87 91 92 89 86 88 89 90 86 85 88 92 93 93 96 96 100 98 98 97
32 35 34 33 34 38 41 40 41 42 45 46 48 51 53 55 56 59 64 73 90 92 94 95 93 95 91 94 94 92 96 100 97 96 98 96 97 99 99 100 100 98 103 104
30 35 37 38 40 41 41 41 42 45 47 48 49 49 51 54 56 58 61 65 71 80 87 99 105 102 100 100 102 102 101 102 104 106 105 108 107 111 110 106 108 111 112 114
30 34 37 41 42 42 42 44 45 46 48 48 49 50 51 53 55 57 60 63 67 72 77 82 89 98 105 109 109 112 113 113 114 114 114 114 112 109 112 114 116 117 118 119
31 33 36 40 43 43 44 44 44 46 48 49 50 51 53 55 57 59 61 63 65 66 69 72 76 79 83 87 90 93 101 104 108 110 116 116 115 116 116 114 111 109 108 106
29 32 34 36 39 41 42 43 43 44 45 48 50 52 54 55 56 57 59 61 62 63 65 66 68 70 74 76 78 80 83 86 88 91 92 94 96 97 98 98 99 98 98 98
31 32 34 36 38 39 39 41 43 45 47 48 50 52 53 55 56 57 59 60 60 62 63 64 66 67 70 72 74 76 78 79 81 83 84 86 88 89 90 91 91 91 91 91
33 35 37 40 41 42 44 45 47 49 49 50 50 51 51 52 54 56 58 59 61 62 63 64 66 67 69 71 73 75 76 77 78 79 80 82 83 84 84 84 84 84 85 87
32 35 37 40 42 43 44 46 47 48 49 49 51 51 52 53 54 55 57 58 60 61 62 64 65 66 68 69 70 72 73 75 76 77 79 79 80 81 82 83 83 83 83 82
34 35 36 38 39 41 42 43 44 44 45 45 46 47 49 50 51 53 54 56 58 60 61 62 63 65 66 68 69 70 71 72 72 73 74 76 76 76 77 77 78 78 77 78
36 37 38 38 39 40 41 41 42 42 43 44 45 46 47 48 49 50 51 52 54 55 56 57 59 60 62 63 64 66 67 68 69 71 72 73 74 75 76 76 77 78 78 79
34 35 37 39 41 42 44 46 47 48 48 48 49 51 52 53 54 55 56 57 59 59 60 60 61 62 63 64 65 67 68 69 71 72 73 74 74 73 73 73 73 73 74 74

GFSNGP_250_spd_111.txt.gz
Wind_Speed
57 58 62 68 73 80 77 72 68 65 65 63 62 68 69 71 70 67 65 67 69 67 62 58 58 59 58 57 58 61 58 57 56 52 47 40 41 47 48 46 39 35 32 28
51 52 56 58 62 77 79 78 70 68 69 59 63 65 65 67 69 69 67 65 68 68 59 51 46 45 49 49 55 52 51 50 48 43 44 41 45 49 51 46 38 35 34 30
50 53 53 56 60 68 79 79 75 70 68 68 63 64 64 65 64 63 60 54 51 50 49 43 46 48 37 41 41 38 39 39 39 43 44 45 48 50 50 44 36 34 40 34
49 49 51 51 57 64 74 78 78 75 74 71 69 69 67 65 66 65 63 63 60 55 44 41 37 34 26 27 24 29 26 29 34 39 44 45 46 48 45 39 36 30 32 34
46 46 50 50 52 56 64 73 81 82 80 77 75 73 71 72 72 70 68 65 64 50 33 34 35 25 16 19 24 21 30 33 35 41 44 45 45 44 43 42 39 35 37 33
43 47 50 50 50 51 54 59 67 75 82 82 80 76 76 77 74 64 50 43 38 33 42 33 33 36 26 19 25 32 36 41 43 40 33 35 37 37 40 42 43 44 39 40
41 44 47 48 50 52 50 55 59 64 72 77 78 76 73 65 54 46 41 33 34 48 40 37 30 26 18 25 28 33 36 38 37 31 33 40 42 44 44 45 46 40 47 46
40 42 44 45 48 51 48 54 49 52 56 57 57 54 48 43 40 38 35 31 57 50 47 44 44 28 26 34 27 26 33 36 38 42 43 45 45 45 48 50 49 56 58 55
37 39 41 42 45 47 49 50 51 52 52 48 46 42 40 40 39 37 35 41 65 61 52 47 45 46 44 46 50 52 47 40 41 49 44 43 46 46 50 50 52 57 59 61
38 40 41 42 44 44 44 46 49 49 46 43 40 37 37 39 38 38 38 64 74 68 62 63 52 64 62 50 52 57 59 60 62 52 57 59 51 53 54 56 55 55 59 61
35 36 37 38 39 41 42 43 43 44 43 40 38 37 36 37 38 40 44 69 80 77 70 71 59 64 61 61 63 56 65 62 60 60 60 62 60 58 58 61 59 59 61 63
33 34 34 35 35 38 38 38 38 38 36 36 35 37 38 38 39 42 49 72 89 88 85 76 73 73 70 63 62 66 64 63 63 61 61 67 71 72 68 68 65 65 69 70
30 33 34 34 35 35 37 39 40 39 37 34 35 37 39 40 41 47 52 68 92 93 90 84 79 82 79 74 71 73 73 73 68 69 74 77 70 68 73 76 77 73 74 75
28 29 30 32 34 35 37 36 36 35 33 37 40 39 41 41 40 52 56 66 91 91 91 88 84 80 80 86 82 83 86 83 74 75 81 85 80 81 78 82 82 84 86 86
28 28 29 30 31 33 36 36 35 34 35 38 38 42 44 45 44 53 60 67 83 95 92 85 87 88 88 84 86 82 82 85 85 81 83 86 86 90 93 91 89 90 88 87
28 30 31 33 34 34 35 36 37 37 38 41 41 43 45 48 51 54 58 76 86 88 94 92 91 92 92 93 92 90 89 87 86 90 91 91 94 96 98 96 95 96 98 99
27 30 33 37 38 36 36 37 37 39 40 43 43 46 48 50 54 54 61 75 84 94 96 98 98 99 99 101 102 102 99 101 100 102 102 99 99 102 104 106 104 105 105 104
28 30 33 37 39 39 40 41 42 46 46 47 49 49 51 52 55 58 59 64 80 86 94 100 104 104 104 105 107 108 107 107 109 104 103 104 107 107 106 108 110 110 110 109
30 31 33 36 38 41 44 46 49 49 47 50 51 53 54 55 56 58 62 65 69 81 94 96 100 106 111 108 108 112 113 113 113 113 110 110 114 118 116 113 108 109 110 111
33 33 34 37 39 40 43 48 49 49 49 50 53 54 56 58 59 60 62 64 67 71 77 88 101 99 99 101 106 106 113 118 112 113 114 115 115 115 115 115 112 116 118 116
34 34 34 35 37 39 40 43 46 47 48 50 54 56 57 58 60 61 63 64 66 68 73 78 81 88 99 106 99 100 102 109 114 110 110 111 114 116 117 119 118 117 116 117
33 35 34 35 36 37 39 41 43 45 46 47 48 52 55 57 59 60 61 63 65 66 67 70 73 77 82 86 88 93 103 105 107 110 113 115 117 120 123 126 128 127 124 117
33 34 35 36 36 38 40 42 44 46 48 49 50 51 53 55 58 59 61 63 65 66 67 69 70 71 73 75 77 80 82 86 89 91 94 97 98 99 99 100 99 99 100 100
32 33 34 35 37 39 41 43 44 45 46 48 49 51 52 54 54 56 57 58 60 62 63 65 67 68 70 72 74 76 78 80 81 83 84 85 86 87 88 89 90 90 91 93
35 36 37 37 38 40 42 43 45 46 47 49 50 50 51 52 54 55 57 59 60 62 63 64 66 67 68 69 71 72 74 76 77 78 80 81 83 84 85 85 86 87 87 88
35 36 37 37 38 38 39 40 41 43 44 46 48 50 52 54 55 57 59 60 62 63 65 66 67 69 70 70 72 72 73 74 75 75 77 78 79 79 80 80 81 81 81 82
31 32 33 35 37 38 40 42 44 45 46 49 50 52 53 54 54 55 56 58 59 60 61 62 62 63 64 65 66 67 68 69 70 71 73 74 76 77 78 79 80 80 81 81

GFSNGP_250_spd_114.txt.gz
Wind_Speed
50 57 51 50 51 56 60 61 63 63 58 51 51 52 63 56 52 50 56 53 54 52 57 60 62 66 69 72 73 73 75 70 68 68 66 60 54 54 47 48 47 45 45 45
43 46 47 47 51 54 60 64 68 70 64 57 57 62 66 55 50 50 56 59 59 65 67 68 67 67 71 76 78 75 68 68 69 65 61 60 58 56 48 46 43 44 45 45
39 42 45 46 51 49 53 65 67 72 66 64 62 67 65 56 53 54 56 60 69 69 70 69 68 71 69 65 63 60 54 53 56 60 60 60 56 50 43 47 45 46 46 44
39 41 46 48 49 50 54 56 65 72 70 70 72 71 67 62 58 56 56 55 56 57 60 59 55 47 41 44 44 48 50 56 59 53 51 50 47 46 48 51 46 47 46 42
40 41 44 50 50 50 50 57 64 75 76 76 76 74 71 66 65 62 60 57 56 57 57 52 48 49 51 49 51 51 55 48 44 45 43 43 41 45 48 46 45 44 42 38
40 42 43 45 50 50 51 55 61 65 73 79 78 78 77 74 70 66 64 63 60 56 55 55 54 50 50 52 45 35 33 30 27 30 28 34 39 43 46 43 40 41 43 41
37 41 42 44 49 51 54 53 57 56 59 68 78 80 81 80 76 72 69 67 62 56 55 54 44 42 44 37 33 31 30 27 24 25 31 35 39 39 39 41 40 36 38 40
37 42 43 44 45 49 52 53 55 54 53 56 61 68 74 78 78 76 74 69 63 61 51 47 38 37 44 40 31 27 33 34 32 31 32 33 34 39 41 36 35 33 39 44
34 37 36 36 39 43 48 50 51 47 47 49 55 58 61 62 64 65 64 66 64 57 43 37 43 47 46 43 42 36 38 40 35 34 29 34 34 32 37 38 41 40 44 45
31 34 33 35 39 43 47 49 45 50 50 45 47 46 46 47 47 46 45 43 41 40 39 52 50 54 48 46 38 38 38 41 42 46 44 37 35 34 37 39 45 44 46 48
30 34 34 36 39 41 43 44 41 45 47 46 45 45 44 42 41 41 40 40 41 40 59 59 56 56 52 57 52 54 49 51 38 44 39 45 45 36 48 48 46 52 51 51
28 30 33 34 35 37 39 40 39 39 43 43 42 41 41 39 39 41 40 39 41 54 66 64 63 62 56 57 61 59 52 59 60 60 51 54 52 50 52 54 58 55 55 58
25 27 30 32 33 34 35 38 38 38 39 39 39 37 35 36 39 40 38 40 42 69 70 69 68 69 62 60 61 54 59 66 64 66 58 60 63 62 63 66 64 67 62 65
25 26 28 30 32 31 33 35 35 36 38 38 38 37 36 38 40 42 42 43 49 58 77 75 74 72 71 71 69 66 68 72 70 68 69 66 66 73 72 70 75 69 72 74
23 25 28 30 31 33 35 35 36 38 38 38 39 40 41 42 43 44 45 45 50 61 85 84 80 79 80 75 75 74 80 81 76 79 78 76 77 72 76 78 81 84 84 79
23 27 29 31 33 35 35 35 37 38 38 38 40 40 42 45 47 48 50 52 52 60 88 89 86 84 85 82 83 81 84 82 81 81 81 78 80 81 82 83 82 82 87 90
23 27 29 31 34 37 38 39 39 40 41 42 43 44 46 47 49 51 54 56 59 63 74 97 95 90 91 92 90 91 89 88 86 86 86 82 89 89 87 89 91 91 91 93
27 27 30 32 34 37 39 42 41 42 43 43 44 46 47 47 48 53 56 58 62 64 72 77 103 102 98 101 99 99 100 99 98 97 98 97 95 96 97 98 99 100 101 104
31 33 34 34 35 38 40 42 42 44 46 46 48 50 52 53 53 55 56 59 64 66 70 74 79 107 111 109 111 109 106 106 107 107 106 104 104 106 108 104 105 106 107 109
33 35 37 38 37 38 40 42 43 44 46 49 51 53 53 55 55 58 60 61 63 68 71 72 75 80 106 114 116 121 119 118 115 116 114 115 117 117 115 115 117 116 113 114
37 38 38 37 38 38 39 41 42 44 46 47 50 52 52 52 53 57 60 64 64 67 72 74 77 78 83 96 107 114 115 120 118 124 118 120 116 116 119 122 121 121 124 125
34 36 37 37 37 38 39 40 43 44 45 48 50 50 50 50 50 53 55 58 62 65 68 72 76 80 81 87 91 94 99 105 113 118 118 118 118 119 121 122 126 125 125 128
32 34 35 36 36 37 38 40 42 43 44 46 48 50 51 53 53 53 53 56 57 61 64 67 70 74 78 82 85 90 97 102 100 100 108 107 111 117 121 123 118 119 125 125
30 31 32 34 35 37 39 40 42 45 46 47 47 48 49 51 53 55 57 58 60 60 61 63 65 68 72 75 78 82 85 88 89 94 102 106 106 106 112 113 112 111 111 111
31 33 34 36 37 38 40 42 44 45 46 48 49 50 51 52 53 53 55 56 57 59 60 62 64 66 68 71 73 76 78 81 84 88 91 93 96 99 100 101 102 102 103 104
33 34 36 37 38 39 40 42 44 45 46 48 48 49 50 51 53 54 56 57 58 60 61 62 64 65 67 69 71 73 75 77 79 82 84 86 88 89 91 93 94 94 95 95
33 33 33 34 36 38 40 42 43 44 45 47 50 51 52 52 53 53 54 55 57 58 60 61 63 64 66 68 69 70 71 73 75 76 78 80 81 83 84 85 86 87 88 88

GFSNGP_250_spd_117.txt.gz
Wind_Speed
27 29 33 36 37 37 39 44 49 50 49 45 44 45 44 51 51 54 54 49 47 49 54 59 63 66 69 70 72 73 72 74 74 67 71 65 69 67 66 66 69 58 55 53
30 32 33 37 39 40 45 51 54 54 56 51 43 40 49 55 61 52 52 53 52 53 57 53 59 69 72 74 76 74 74 73 74 73 74 72 73 71 74 73 72 64 56 51
28 31 33 39 42 43 47 53 55 57 61 58 57 60 63 60 57 48 43 49 55 56 55 54 58 60 63 57 56 59 61 59 61 65 70 74 75 77 79 77 67 59 58 55
29 32 34 39 43 46 50 56 57 62 62 64 67 66 67 64 61 54 45 46 50 50 49 48 55 55 56 59 61 63 63 63 64 68 72 78 82 82 75 64 58 57 55 55
33 34 38 43 42 45 49 60 50 53 56 62 68 70 67 68 66 61 53 50 52 51 50 53 53 57 61 64 67 66 66 64 62 62 65 61 63 64 61 61 58 54 51 50
38 40 41 44 42 43 46 51 54 56 62 64 66 70 71 70 68 65 64 57 54 53 52 53 52 53 58 59 55 54 50 52 54 59 64 63 58 59 55 54 51 45 52 49
34 39 41 45 47 47 49 51 50 54 57 59 61 65 72 76 73 70 68 64 62 62 60 58 54 52 47 42 43 44 52 58 60 62 62 59 48 40 41 43 43 49 50 52
33 37 39 39 43 48 49 50 53 55 54 53 57 64 71 74 75 77 75 73 71 69 67 65 61 52 46 40 46 49 55 53 47 52 47 41 31 31 31 33 35 40 43 41
29 32 36 37 40 42 44 48 52 55 55 50 52 54 60 66 72 76 78 77 75 75 72 69 63 56 48 47 44 41 38 36 37 36 30 24 21 22 25 29 34 39 40 41
26 30 32 33 36 38 40 43 47 50 50 50 50 52 52 53 55 57 60 61 65 67 66 63 56 51 48 43 36 37 38 40 38 33 30 28 24 25 29 31 34 34 42 44
24 28 31 34 36 39 43 44 46 46 46 47 48 49 48 49 49 49 49 50 51 52 49 44 41 40 40 36 45 45 40 42 39 37 36 30 30 33 39 44 42 47 34 36
24 26 29 30 34 39 41 42 42 42 42 45 48 48 47 47 48 46 43 41 41 41 40 38 37 38 39 46 55 51 44 45 46 48 47 39 42 40 43 43 45 46 41 42
24 25 27 27 30 33 36 39 39 40 41 42 44 45 45 45 44 44 43 43 44 43 41 39 39 43 45 59 58 57 56 55 50 56 46 53 49 47 48 46 49 47 46 46
26 25 26 28 28 31 33 34 36 38 39 40 41 43 43 41 41 40 41 43 45 43 42 42 43 47 56 65 66 63 61 59 61 57 54 55 55 56 56 54 52 56 53 55
26 26 27 29 30 30 31 34 35 37 39 39 39 41 41 41 40 40 42 44 45 44 44 44 48 54 65 69 72 69 67 66 64 66 69 72 63 63 62 61 65 68 65 65
27 27 27 29 30 32 33 34 37 39 37 38 40 41 41 42 42 43 45 46 47 47 47 49 52 62 73 74 77 77 77 76 73 75 74 78 68 74 75 73 74 77 74 78
30 27 27 29 31 32 33 36 38 39 40 40 41 41 41 41 43 45 46 48 50 51 52 53 55 66 80 80 81 83 85 84 83 84 83 81 78 82 83 81 84 84 88 86
31 30 29 29 29 31 33 36 38 40 43 45 46 46 46 47 47 46 48 52 53 54 56 59 60 69 79 85 86 89 88 87 89 90 90 92 82 85 89 91 92 95 94 94
31 32 32 32 32 32 32 35 38 40 42 44 46 48 48 50 51 51 51 53 56 56 57 59 62 68 80 89 92 93 95 96 92 92 92 94 93 93 94 98 103 101 101 101
32 33 35 36 36 37 36 36 36 38 41 43 45 46 48 50 51 53 54 55 56 59 61 63 63 68 76 74 97 98 100 104 105 102 101 101 102 101 102 104 105 109 108 107
31 32 34 35 37 39 40 40 40 39 40 42 43 44 47 51 51 50 53 56 56 58 63 64 66 68 73 78 79 99 105 106 108 111 111 108 108 109 110 110 111 114 113 114
33 35 37 37 38 38 39 40 42 43 42 42 43 44 46 47 50 52 53 54 52 53 57 63 66 67 70 74 79 84 99 109 113 113 113 113 115 116 116 115 118 119 121 121
31 32 33 34 34 35 36 37 38 39 40 41 42 43 44 45 47 49 52 54 55 55 55 57 58 62 66 69 73 76 82 90 99 108 113 115 116 117 120 124 124 127 129 129
26 27 29 31 32 34 35 36 37 38 40 41 42 44 46 47 49 50 51 54 56 57 58 60 62 62 63 65 69 72 75 78 82 87 93 96 99 103 116 116 121 126 126 130
26 28 30 32 33 34 36 36 37 39 40 42 43 45 46 48 49 50 52 54 55 56 58 60 61 63 64 66 68 70 72 74 77 79 81 83 87 91 94 95 99 107 112 113
32 33 33 33 34 35 37 39 39 41 43 43 44 45 45 46 47 48 50 52 55 57 58 60 61 62 64 65 67 68 70 71 73 76 79 81 83 84 87 89 91 92 94 96
30 31 32 33 34 36 36 37 38 40 42 44 45 44 44 45 45 46 47 49 50 51 52 54 57 60 62 65 66 67 68 69 71 72 74 75 77 79 81 83 84 86 88 89

GFSNGP_250_spd_120.txt.gz
Wind_Speed
20 19 21 27 29 27 26 34 38 41 38 35 39 45 46 39 35 38 42 45 41 43 44 47 51 53 55 58 61 65 69 68 67 64 62 56 55 54 59 62 60 60 61 62
20 20 24 29 32 32 33 33 41 50 45 45 43 46 49 43 44 43 48 46 42 42 40 40 43 47 52 58 61 63 71 68 71 70 59 61 63 63 66 68 66 64 66 63
20 23 25 31 35 36 37 41 48 54 56 55 49 49 49 50 54 52 53 44 49 43 42 43 43 45 47 48 50 56 66 65 64 63 65 67 67 68 68 74 73 70 71 70
24 26 31 36 38 40 42 47 52 57 57 54 54 52 52 53 55 57 55 49 46 43 45 48 49 48 47 48 50 53 66 71 65 67 71 70 75 78 75 66 66 68 69 66
27 29 32 36 43 43 46 47 50 53 58 59 58 58 53 52 49 54 59 49 42 44 45 48 53 53 49 52 56 57 60 61 63 68 66 64 65 63 64 66 67 67 68 65
27 30 33 35 36 34 40 46 46 51 54 55 56 59 57 57 59 60 56 54 54 50 49 51 53 56 57 55 55 55 52 53 58 62 64 65 62 64 66 67 69 70 68 59
28 30 33 34 35 36 33 40 41 46 52 56 55 60 64 65 64 64 64 64 61 58 57 55 54 54 54 52 53 51 55 57 58 62 64 65 68 70 69 66 60 61 53 55
28 30 33 34 34 36 40 43 44 45 47 50 52 55 61 68 73 73 73 72 70 69 65 58 53 54 55 52 49 47 47 47 47 49 54 58 57 57 59 57 49 58 53 52
30 33 35 37 37 38 39 41 47 53 54 54 49 49 55 60 61 66 73 76 75 73 70 66 61 56 55 54 52 52 52 50 47 52 54 59 62 58 61 53 44 44 43 44
28 33 36 38 39 40 41 43 44 43 46 50 53 53 54 55 56 60 62 65 66 67 69 70 68 67 65 60 55 55 56 54 54 57 62 61 58 48 42 36 35 36 40 37
28 30 33 36 39 41 43 43 44 45 45 46 48 51 53 54 54 54 53 53 55 56 58 59 59 57 57 56 54 53 54 53 58 54 46 41 40 34 28 26 22 25 26 28
28 30 31 35 37 40 43 44 44 44 45 49 50 49 49 49 51 54 51 51 51 51 51 50 49 47 46 44 45 47 45 45 43 40 40 40 40 33 32 33 34 32 30 31
27 29 30 33 36 37 39 40 43 43 44 45 46 47 48 48 49 49 51 51 51 51 49 47 43 40 37 38 40 39 40 41 47 47 45 42 46 49 42 35 35 41 41 46
27 28 30 31 32 33 35 38 40 40 42 43 45 46 48 48 47 46 48 50 50 50 49 48 45 41 38 38 39 39 43 51 55 56 53 48 52 51 45 44 49 55 51 56
28 28 29 30 30 31 33 36 39 40 40 41 44 46 46 47 47 46 47 47 46 47 47 49 48 45 42 42 43 45 52 59 64 63 62 60 59 62 56 60 56 65 61 63
29 30 29 29 28 30 32 34 35 37 40 40 42 43 44 46 47 47 47 47 47 47 47 49 49 47 46 46 49 50 59 66 68 69 71 67 68 67 70 65 59 67 65 66
28 28 29 30 26 28 32 33 35 35 37 39 42 42 42 44 46 48 48 48 48 48 48 51 50 48 49 50 53 56 62 73 73 72 79 76 72 76 76 78 69 69 72 72
29 28 29 30 29 28 31 33 35 37 38 39 40 43 44 45 46 47 48 48 48 49 51 52 52 51 51 53 55 59 63 77 82 80 82 81 82 82 83 82 81 76 77 77
30 30 30 30 31 30 30 32 35 36 38 40 41 43 44 44 47 49 50 50 50 51 52 54 54 52 53 56 58 62 64 69 83 86 89 90 89 88 88 91 89 86 86 88
30 30 30 32 33 33 33 33 33 34 36 38 39 42 43 45 46 48 49 49 50 51 52 53 54 56 56 57 60 63 68 69 78 89 93 95 94 92 96 99 96 95 97 92
29 29 30 31 32 34 35 37 38 38 37 37 38 40 43 44 46 47 47 48 50 50 51 52 53 56 58 60 61 63 69 73 75 87 94 99 100 101 100 101 102 103 104 102
27 29 31 33 35 36 38 38 39 40 41 42 42 41 42 43 45 46 47 48 49 49 50 51 52 53 56 59 61 62 65 72 77 79 90 97 105 107 105 106 108 109 109 109
24 26 28 29 31 32 34 35 35 36 37 38 40 41 42 43 45 46 45 46 48 50 51 51 52 54 55 58 60 62 64 66 70 77 82 91 96 104 109 110 111 113 116 117
21 23 26 28 31 32 33 34 36 37 37 38 40 41 41 43 44 45 47 48 49 50 51 52 53 54 55 57 59 62 64 66 68 70 73 78 88 95 101 105 108 113 117 118
24 26 28 30 32 32 32 34 36 37 38 40 40 41 41 41 42 44 45 46 47 49 50 52 53 54 55 57 58 60 63 67 68 69 71 74 78 82 88 93 97 100 106 114
25 26 27 27 30 32 33 35 36 35 34 35 37 38 39 40 40 40 41 43 45 47 49 50 51 53 55 56 58 59 60 62 65 68 71 73 74 76 79 82 85 89 92 96
27 28 29 30 30 31 31 32 34 36 37 36 35 34 33 35 37 38 40 41 41 42 44 45 47 48 51 52 54 56 58 59 61 63 65 68 71 73 75 76 78 80 82 85

GFSNGP_250_spd_123.txt.gz
Wind_Speed
21 20 20 21 20 22 27 33 37 43 39 34 33 34 37 36 33 26 24 33 36 43 55 61 62 64 65 67 69 69 71 70 69 74 73 71 70 66 65 62 65 68 66 71
18 22 24 25 23 26 27 33 41 49 51 51 49 47 48 47 46 46 55 47 36 40 45 49 53 56 60 63 64 64 64 65 64 67 66 67 73 73 61 58 60 61 61 66
20 22 26 28 26 34 35 38 46 47 48 52 49 42 45 51 51 52 55 60 51 50 43 42 43 45 46 47 48 49 51 54 59 61 66 68 67 66 69 67 64 61 58 57
22 22 27 30 30 38 42 43 50 53 52 50 53 52 50 53 61 65 63 59 51 46 47 48 48 47 46 42 40 40 41 44 50 52 54 56 62 67 65 62 59 59 60 60
24 24 25 27 29 36 44 49 53 57 58 59 54 54 61 62 59 60 58 61 56 50 47 47 47 47 48 52 51 48 48 49 47 42 44 53 57 65 64 67 65 67 69 67
24 21 24 23 28 34 43 53 51 54 55 56 52 52 59 65 67 65 63 59 54 50 48 49 50 51 55 56 54 54 52 48 49 47 49 51 50 63 69 66 67 66 69 72
24 23 24 25 24 32 34 44 54 52 56 55 55 54 56 60 61 61 61 61 59 58 59 59 60 59 59 57 52 50 51 49 49 52 53 54 53 61 70 69 68 69 67 66
26 26 25 28 28 28 33 39 46 50 54 56 60 59 55 60 61 62 63 62 63 64 64 58 56 56 55 54 50 49 52 54 54 53 53 56 57 55 57 60 61 63 67 68
28 29 29 29 31 33 33 36 42 47 51 55 57 56 56 61 62 65 66 65 64 64 62 59 56 55 57 56 56 56 56 57 56 55 54 55 53 57 55 59 65 68 71 69
29 31 32 31 32 34 36 38 40 43 49 54 57 57 58 60 62 67 68 71 71 70 69 66 62 58 54 54 56 56 58 59 59 58 55 54 52 53 53 54 56 57 60 59
31 32 33 34 35 35 36 38 41 44 47 49 50 53 57 57 58 61 64 67 71 73 73 72 70 66 61 59 56 55 58 60 63 64 65 66 63 62 59 60 60 60 54 53
31 33 34 35 36 38 39 41 43 44 45 47 48 51 53 55 55 58 60 63 63 64 62 60 59 57 55 53 51 51 53 58 61 65 66 70 67 66 61 57 58 56 47 47
30 32 35 37 38 40 39 41 44 45 44 45 47 49 51 55 57 57 58 57 57 61 58 57 56 54 51 50 48 47 49 50 51 52 56 56 59 61 58 52 49 46 43 45
31 31 33 36 39 39 41 41 41 41 42 43 44 46 48 50 50 50 54 54 54 55 54 55 56 55 53 50 46 44 44 44 43 44 44 44 45 47 46 50 51 48 51 45
32 31 31 33 36 37 36 38 37 38 40 40 40 43 47 47 48 49 51 51 51 51 52 53 54 54 52 50 47 44 44 43 42 43 44 47 54 54 55 59 55 53 54 55
32 28 29 31 32 35 35 35 36 35 36 38 38 39 43 44 46 47 48 48 48 48 50 50 52 52 52 51 49 46 46 46 46 46 48 56 62 63 63 63 65 63 60 61
30 28 28 29 29 31 33 34 34 35 35 36 38 40 41 42 44 45 46 48 48 48 50 50 49 50 51 52 50 47 49 49 50 51 54 63 66 68 72 70 68 72 71 72
29 29 29 27 29 29 30 31 32 33 34 35 37 39 41 42 43 44 46 47 48 49 50 51 51 51 51 52 52 49 49 52 54 55 59 70 71 77 77 77 79 79 82 78
27 28 28 26 26 28 29 30 31 32 33 35 36 37 39 41 43 45 45 46 48 50 50 50 51 51 52 52 53 51 50 52 56 59 63 71 76 81 85 82 85 85 88 87
24 24 25 26 26 27 28 30 32 34 34 35 36 37 39 40 41 43 45 47 48 49 50 50 51 52 52 52 53 54 53 54 57 61 66 69 79 82 85 90 89 91 93 93
23 24 25 27 29 30 30 31 32 34 35 36 37 37 38 40 42 43 45 47 47 48 49 50 51 52 53 54 54 55 55 56 58 62 66 71 75 84 90 91 96 97 99 101
23 24 26 27 29 31 31 32 34 34 36 36 37 38 39 40 41 43 45 47 48 49 50 51 52 53 54 55 55 56 56 57 58 61 65 71 73 81 86 92 96 99 103 105
19 21 22 25 27 29 30 32 34 35 35 35 36 37 38 39 40 41 42 44 46 49 50 50 51 52 53 54 56 57 58 59 60 62 64 66 72 75 81 91 94 98 100 103
19 20 23 25 27 29 31 33 34 34 35 36 37 37 38 38 39 40 41 42 41 43 45 47 49 50 52 53 54 56 58 60 61 63 64 66 69 71 76 80 86 93 96 98
18 20 21 23 25 27 28 30 31 35 36 36 35 34 33 35 37 38 39 40 41 41 41 43 45 47 48 49 51 53 55 57 59 62 64 67 69 70 73 76 79 82 86 89
19 21 24 27 29 30 30 30 31 30 29 31 33 34 33 31 31 31 33 36 39 40 41 42 43 45 47 48 49 51 52 54 56 58 60 63 66 69 71 73 75 78 81 84
23 26 29 31 33 33 34 34 33 33 33 31 29 31 34 34 33 32 32 33 35 37 39 40 42 44 45 47 49 50 51 52 54 56 58 60 62 64 66 68 70 73 76 78

GFSNGP_250_spd_126.txt.gz
Wind_Speed
32 20 22 17 19 21 24 27 28 34 33 29 27 26 24 28 26 23 27 37 46 54 51 49 50 59 71 73 76 71 74 78 77 82 82 83 85 83 83 83 82 84 83 80
29 19 24 20 26 28 28 32 36 34 43 41 39 36 33 22 21 13 15 29 38 43 39 37 50 54 62 68 68 67 71 75 78 83 84 80 79 78 77 77 77 78 79 75
27 18 24 22 28 35 35 38 39 37 47 49 52 50 46 34 35 32 30 36 34 37 47 42 44 51 54 60 63 65 68 73 78 75 71 70 69 70 70 69 67 68 64 66
22 18 21 21 29 41 38 44 43 43 43 50 55 56 50 47 48 48 47 50 34 30 53 57 63 57 49 53 57 59 61 62 63 63 62 61 61 61 61 61 61 62 61 62
20 17 16 24 29 43 46 43 44 47 46 50 51 54 55 60 59 61 58 57 53 56 54 58 56 49 45 50 53 54 55 55 57 55 52 49 51 53 57 62 62 62 61 62
21 19 17 22 29 40 51 50 49 47 50 48 54 56 56 61 65 59 62 67 64 64 68 67 63 54 52 51 51 52 55 54 51 46 46 43 44 45 49 51 57 62 63 63
22 20 21 20 28 35 48 55 53 53 51 56 55 55 58 66 66 66 66 68 68 70 72 71 68 62 60 60 59 60 61 59 56 53 49 46 47 41 39 42 49 50 57 64
23 23 22 23 25 34 38 53 56 57 57 56 61 58 60 64 65 69 73 70 73 76 76 73 69 68 62 60 64 64 63 60 60 55 54 53 46 44 44 44 45 48 49 55
25 26 26 25 26 30 38 44 56 60 62 60 59 63 59 59 63 66 67 72 76 79 80 76 72 68 66 64 64 61 60 60 58 55 55 55 54 50 53 53 53 56 57 55
28 27 28 29 29 28 30 39 43 50 56 62 63 59 60 65 64 63 65 69 75 76 74 73 72 71 69 66 64 61 58 59 58 57 56 55 56 58 58 59 57 55 56 57
30 31 30 31 32 31 31 33 37 45 50 55 63 70 68 64 64 65 66 65 66 69 72 73 69 67 65 64 62 60 58 58 61 63 62 63 66 64 65 66 64 63 61 62
28 33 33 33 33 34 35 36 35 37 41 48 55 59 62 69 74 75 75 73 72 70 69 69 69 71 70 68 64 60 57 52 53 57 62 69 74 69 68 66 64 65 63 60
30 31 35 35 35 37 36 37 37 37 36 37 41 46 55 62 65 67 69 70 71 72 68 67 69 69 70 65 58 57 59 54 50 51 54 58 72 73 66 67 63 63 62 63
33 30 31 34 35 36 38 38 38 39 39 39 39 40 43 47 52 58 63 65 66 67 66 65 64 64 64 63 57 59 62 57 52 50 50 51 54 61 68 69 64 64 66 65
31 30 29 29 31 34 37 39 38 40 42 43 42 43 43 44 46 48 52 56 57 59 61 62 62 59 59 57 56 58 59 55 52 49 49 49 50 49 53 57 60 63 63 69
29 28 28 29 29 31 34 36 37 36 39 42 44 44 44 43 43 44 46 48 48 53 56 57 57 54 55 54 54 55 54 53 52 50 49 49 48 45 46 49 52 56 61 64
26 26 26 26 27 29 32 34 35 35 36 39 41 42 42 43 43 43 44 44 46 48 49 51 52 52 53 53 53 53 53 52 51 50 51 51 50 48 48 52 54 59 64 66
24 24 24 24 25 26 29 32 35 36 35 36 39 40 41 42 44 44 44 43 44 45 47 47 48 50 51 51 51 51 52 52 51 50 50 52 53 53 52 56 61 65 71 71
22 22 22 23 25 27 29 31 34 36 37 37 36 38 40 41 42 44 45 45 45 45 45 46 47 48 48 49 50 50 51 52 52 51 51 53 56 58 58 60 65 71 77 78
20 21 21 22 23 24 26 28 30 32 34 36 38 39 40 40 41 43 44 45 46 46 47 48 48 49 49 50 50 50 50 51 52 53 53 54 57 61 64 64 67 76 80 84
18 19 21 22 24 25 26 27 28 30 31 33 35 37 38 40 40 41 42 43 45 47 48 49 49 49 50 52 52 53 53 54 53 53 53 54 57 62 67 70 70 78 83 87
18 19 20 21 23 25 27 29 30 31 31 32 33 33 34 36 37 39 40 41 43 45 47 49 50 51 51 52 53 54 54 55 56 57 57 57 57 60 65 69 74 77 83 87
15 17 19 20 21 23 25 28 30 31 33 35 35 33 33 34 36 37 39 39 40 42 43 44 46 48 51 52 53 54 55 56 56 57 59 60 62 63 65 69 72 77 80 86
13 15 17 18 20 22 24 26 27 28 29 30 31 33 35 35 34 34 35 36 38 40 41 42 44 45 47 49 51 53 54 55 56 57 59 60 62 64 66 69 73 76 79 83
12 15 18 22 26 29 31 32 32 31 32 31 31 31 31 33 33 33 32 32 34 35 37 39 42 43 44 45 46 48 51 53 55 56 57 59 61 63 65 67 70 73 77 80
15 19 22 25 28 30 31 32 35 37 37 36 33 31 31 31 31 31 32 32 32 32 34 37 39 40 42 43 45 47 48 50 51 54 56 58 59 61 62 65 67 70 72 74
19 22 25 28 30 33 35 36 37 38 38 38 38 37 34 33 33 33 32 32 33 33 33 34 36 38 40 41 42 44 46 48 49 50 52 53 55 57 60 63 66 67 69 71

GFSNGP_250_spd_129.txt.gz
Wind_Speed
45 32 34 33 29 32 30 27 29 31 29 30 29 31 30 24 26 27 30 45 46 48 39 56 48 50 59 58 57 49 52 63 74 75 75 76 78 81 80 77 76 78 79 78
38 30 33 32 28 31 36 30 34 32 33 34 33 33 33 30 26 26 35 40 52 51 65 58 46 48 54 58 58 67 71 77 73 76 75 75 78 77 77 75 77 79 79 79
32 30 32 29 26 33 38 35 37 36 36 35 36 40 41 40 37 30 32 35 44 51 52 63 61 62 51 55 63 63 66 73 74 76 74 75 78 78 78 78 75 74 75 74
28 27 26 23 26 38 45 39 40 39 39 39 35 45 45 43 39 35 37 35 35 43 52 54 56 60 58 56 61 63 71 75 74 74 71 72 73 75 77 73 71 71 73 75
26 24 20 22 25 36 46 41 42 42 39 43 39 45 45 44 40 37 32 36 34 40 45 59 57 52 58 55 61 59 61 67 75 74 73 73 74 72 69 66 66 67 68 69
26 24 18 20 25 35 46 46 44 41 46 46 41 46 46 49 47 48 44 46 44 43 52 57 61 60 61 60 61 61 58 58 61 66 68 68 67 65 61 59 61 59 60 62
23 24 19 17 24 30 42 48 48 50 45 52 51 47 55 56 55 52 53 54 57 57 58 59 60 61 65 66 67 67 65 60 59 59 60 61 58 54 49 50 50 50 50 52
24 22 21 19 19 32 36 48 54 57 55 53 55 57 56 62 61 62 61 63 69 69 67 65 64 64 63 67 71 73 70 65 60 60 61 61 58 54 54 54 50 48 43 46
27 25 22 21 22 24 33 41 49 55 62 60 58 59 60 60 66 68 68 70 72 71 71 71 71 74 73 75 73 73 74 71 65 65 61 66 63 61 62 60 56 50 49 46
28 29 28 26 24 25 27 34 44 49 55 64 65 60 62 66 62 64 67 66 71 73 76 75 76 72 75 77 77 74 72 70 70 64 63 64 65 67 64 61 62 62 56 54
31 31 30 31 30 27 29 31 36 43 50 57 63 64 62 59 65 67 66 65 65 74 76 80 76 77 73 76 76 76 76 75 75 72 67 67 65 64 65 65 66 66 68 65
32 32 32 32 35 33 30 30 32 38 44 49 51 53 63 66 66 69 75 78 76 75 74 78 76 76 76 73 72 74 76 74 74 72 68 68 66 65 64 66 69 71 68 73
34 34 34 34 34 36 33 32 31 33 35 39 44 50 56 59 62 65 67 67 72 73 76 75 78 75 77 74 78 74 70 68 71 71 71 66 59 64 68 70 71 72 73 72
36 36 35 34 34 34 33 32 31 32 33 34 38 42 47 52 56 59 61 62 62 64 65 65 66 66 65 67 66 66 66 65 66 61 56 56 56 57 62 69 71 72 71 65
37 36 34 32 31 30 30 30 31 33 35 35 36 38 40 45 49 51 54 57 59 62 63 63 62 62 60 60 61 62 61 60 59 56 55 57 55 51 51 55 58 62 62 61
36 32 29 27 28 27 28 29 31 33 34 35 37 38 40 42 44 45 46 49 52 54 57 59 60 59 58 58 60 60 58 57 56 56 56 56 54 52 52 54 55 54 54 56
29 27 25 25 25 26 27 29 30 31 33 35 37 38 39 40 43 45 46 47 48 49 50 52 53 53 54 56 57 57 57 56 56 56 56 56 55 54 53 54 55 54 53 53
24 23 24 24 23 23 24 25 28 30 33 35 36 38 39 40 41 43 45 46 46 47 48 49 50 51 51 53 54 54 54 55 56 56 57 57 56 55 54 55 56 55 55 52
22 20 19 19 20 21 22 23 25 27 30 32 34 35 36 37 39 40 42 43 44 45 46 46 47 48 50 51 51 51 53 54 54 56 57 57 56 57 56 57 58 59 58 56
18 18 18 18 18 19 20 21 22 24 26 28 30 32 33 35 37 38 38 40 42 45 46 46 45 45 46 48 49 50 50 50 53 54 55 56 57 58 57 58 59 60 61 61
16 15 14 14 15 17 20 21 23 25 27 29 31 32 31 31 33 35 37 38 39 40 42 45 47 47 46 45 46 48 49 50 51 52 54 56 57 57 58 58 59 61 63 64
11 11 12 14 16 16 18 20 22 24 25 26 28 31 33 34 34 33 34 36 38 40 40 41 42 44 46 47 47 47 48 48 49 51 52 54 56 57 59 60 61 62 65 67
9 13 11 11 12 15 17 20 22 24 25 26 26 25 26 29 31 32 34 33 33 35 37 39 41 43 44 46 47 48 49 49 49 50 51 52 54 55 58 60 62 64 66 69
6 7 9 13 16 19 22 25 27 29 31 32 32 32 31 28 28 29 30 31 33 34 34 35 37 39 41 43 45 46 47 49 50 51 51 52 53 55 56 58 61 63 66 69
4 8 12 16 20 24 26 27 30 32 34 36 37 38 38 37 35 34 32 31 32 32 32 34 35 36 38 40 42 43 44 46 48 49 51 52 53 55 56 58 60 62 64 67
6 10 14 16 19 21 24 27 29 32 35 38 40 41 41 42 41 40 37 35 33 33 33 33 33 35 36 37 39 41 42 43 44 45 47 50 51 53 54 55 58 60 63 65
6 9 11 13 17 20 22 25 28 31 34 36 39 41 44 45 44 44 44 42 38 36 35 35 35 35 36 37 36 37 39 41 42 43 44 45 47 50 52 54 55 55 57 60

GFSNGP_250_spd_132.txt.gz
Wind_Speed
59 61 59 51 44 39 37 33 32 35 35 35 32 29 27 29 28 31 32 34 32 26 24 17 13 14 30 33 42 63 86 83 75 74 74 78 81 78 78 83 88 80 83 79
59 59 53 43 39 35 35 33 31 35 39 34 33 29 28 32 30 32 30 40 38 32 29 23 28 29 27 27 28 37 56 79 90 90 83 85 91 89 80 82 82 85 86 83
56 52 44 38 34 32 33 32 32 37 43 38 37 34 29 38 40 34 36 43 42 44 39 41 44 41 38 45 42 34 41 56 52 57 62 70 69 66 78 78 80 82 83 83
49 43 36 35 31 30 31 33 33 38 44 43 39 37 34 40 39 42 45 46 48 49 47 47 45 47 54 52 56 52 62 58 53 59 60 63 68 76 82 77 78 81 82 85
40 35 33 30 30 30 32 34 36 38 45 45 43 44 35 48 42 43 52 54 55 53 57 54 53 59 66 59 55 65 65 68 64 72 72 75 74 80 87 81 76 76 78 80
35 31 30 28 28 30 30 33 38 37 42 43 49 51 44 51 51 48 50 54 60 62 63 64 63 63 58 58 59 62 71 82 78 76 80 85 83 82 84 84 81 79 76 79
29 28 28 27 26 30 30 32 36 39 40 42 51 54 49 47 57 52 49 52 57 65 70 70 72 70 70 70 71 70 71 72 72 76 80 87 87 87 85 83 81 80 78 73
29 27 26 27 27 27 31 33 34 38 40 43 46 50 56 57 51 60 54 57 55 56 59 71 78 76 76 82 80 78 78 75 77 77 76 80 82 77 70 69 73 76 75 74
30 29 29 28 28 28 28 33 35 37 40 44 45 51 52 59 59 56 57 56 58 62 63 63 64 71 73 83 85 86 81 82 78 75 77 76 76 74 71 70 65 65 65 63
30 30 32 31 30 29 29 30 32 37 39 42 45 49 52 53 55 60 60 60 62 59 66 68 68 69 69 72 78 79 86 87 82 79 79 78 79 79 74 69 67 64 62 61
29 32 33 33 34 33 33 32 33 34 39 43 45 47 48 49 53 56 66 67 64 66 66 66 71 71 73 72 72 75 79 81 80 79 78 76 74 74 73 73 75 71 65 65
34 36 35 35 35 35 37 38 37 36 38 41 44 46 47 48 49 54 57 62 67 69 69 73 75 76 75 77 80 82 78 76 77 76 77 78 77 74 74 71 71 71 70 67
37 37 37 36 37 38 38 40 42 39 37 40 42 45 47 48 48 49 51 54 58 65 70 72 73 73 75 76 75 76 81 84 79 78 78 73 75 73 70 71 72 72 72 70
38 38 39 39 39 39 39 40 40 39 37 36 38 42 44 46 48 49 49 51 54 58 60 63 66 67 69 70 71 72 74 75 77 77 77 78 78 77 76 73 71 73 69 65
39 40 39 39 38 35 34 34 34 34 34 33 34 35 37 40 43 46 49 52 53 53 53 55 56 58 60 63 64 65 66 68 67 70 73 74 72 72 69 68 67 66 67 64
39 39 38 34 30 29 28 27 27 29 30 31 33 34 34 36 38 40 43 47 51 55 57 57 57 57 56 56 56 57 57 57 58 60 66 68 67 66 63 63 63 64 64 62
39 36 31 27 24 23 23 23 24 25 26 27 29 32 34 36 37 37 39 41 43 44 47 50 52 54 56 57 58 58 57 57 56 57 58 60 61 61 61 61 61 62 60 59
34 28 25 24 21 18 18 18 19 20 22 24 26 29 31 33 35 37 38 39 39 41 41 42 44 46 48 50 51 53 53 54 55 56 56 55 55 57 58 59 59 59 57 57
25 23 21 18 18 18 17 18 18 19 20 21 23 25 28 31 33 35 35 37 38 39 40 41 41 42 43 45 47 48 49 51 52 53 53 54 54 55 57 58 58 57 56 57
20 16 16 15 15 14 13 14 16 16 18 19 22 24 26 28 30 31 30 31 34 37 38 39 40 41 43 44 45 46 47 48 50 52 52 52 53 55 55 56 57 57 57 57
15 14 13 10 11 11 12 13 14 17 19 19 20 21 21 21 24 27 31 33 33 33 34 36 39 40 41 42 44 44 45 46 47 49 51 52 53 54 55 56 57 58 58 59
13 10 9 10 10 8 7 8 10 11 13 16 18 19 20 21 21 23 25 27 29 30 32 34 35 36 38 40 41 42 44 46 46 47 48 50 52 54 55 56 57 58 59 60
10 9 8 6 5 5 7 10 13 16 19 22 24 26 27 28 28 29 29 29 27 27 29 31 34 36 36 37 39 41 41 42 44 46 48 49 49 51 53 55 57 58 59 61
8 6 6 3 2 6 10 13 16 18 21 24 26 28 30 32 33 34 35 35 34 33 34 33 32 33 35 37 38 38 40 42 42 43 44 47 49 50 50 52 54 57 59 61
8 6 3 2 5 8 10 13 16 19 21 24 27 30 32 34 36 37 38 39 39 39 39 38 37 35 34 35 37 38 39 40 41 43 44 45 46 48 50 51 52 53 55 58
10 7 3 3 5 7 11 15 18 21 24 27 30 33 36 39 41 43 43 44 45 44 43 42 41 40 38 37 36 38 39 39 40 41 42 43 45 45 47 48 50 51 52 53
10 6 6 7 8 11 15 20 24 26 28 30 32 34 36 39 41 44 47 47 47 48 48 47 46 45 44 41 39 38 38 39 40 41 41 42 43 43 45 46 47 48 50 51